Regional Weather Roundup
Issued by NWS

Home | Current Version | Previous Version | Graphics & Text | Print | Product List | Glossary On
Versions: 1 2 3 4 5 6 7 8 9 10 11 12 13 14 15 16 17 18 19 20 21 22 23 24 25 26 27 28 29 30 31 32 33 34 35 36 37 38 39 40 41 42 43 44 45 46 47 48 49 50
000
ASUS43 KTOP 181608
RWRKS

WEATHER ROUNDUP FOR KANSAS
NATIONAL WEATHER SERVICE GOODLAND KS
1100 AM CDT SAT APR 18 2015

NOTE:  "FAIR" INDICATES FEW OR NO CLOUDS BELOW 12,000 FEET WITH NO
SIGNIFICANT WEATHER AND/OR OBSTRUCTIONS TO VISIBILITY.

KSZ001>006-013>018-027>032-041>047-181700-
NORTHWEST KANSAS

CITY           SKY/WX    TMP DP  RH WIND       PRES   REMARKS
GOODLAND       CLOUDY    50  47  89 NE10      29.91F
HAYS           CLOUDY    61  50  67 SE7       29.90R
HILL CITY      CLOUDY    57  52  83 CALM      29.91S
RUSSELL        MOSUNNY   63  56  78 VRB6      29.88S
$$

KSZ061>065-074>080-084>089-181700-
SOUTHWEST KANSAS

CITY           SKY/WX    TMP DP  RH WIND       PRES   REMARKS
DODGE CITY     PTSUNNY   63  51  65 S15       29.88S
ELKHART          N/A    N/A N/A N/A MISG        N/A
GARDEN CITY    SUNNY     55  47  74 SE6       29.88S
GREAT BEND     CLOUDY    61  54  77 SE8       29.89F
LIBERAL        SUNNY     55  45  67 NW9       29.91R
PRATT          SUNNY     68  54  60 SE7       29.90S
$$

KSZ066>073-081>083-090>101-181700-
SOUTHEAST KANSAS

CITY           SKY/WX    TMP DP  RH WIND       PRES   REMARKS
CHANUTE        LGT RAIN  62  60  93 S14       29.96R
COFFEYVILLE    LGT RAIN  61  60  97 NE5       29.96F FOG
HUTCHINSON     CLOUDY    66  58  75 S7        29.90S
MEDICINE LODGE   N/A     68  57  68 VRB6      29.90S
NEWTON         CLOUDY    63  57  82 S10       29.94S
PARSONS        RAIN      61  61 100 SE5       29.99R
WICHITA INTL   LGT RAIN  63  59  87 SE7       29.93R
WICHITA JABRA  CLOUDY    64  60  87 S6        29.93R
WICHITA MCCONL CLOUDY    64  59  82 S6        29.93S
WINFIELD       CLOUDY    65  62  90 MISG      29.94S
$$

KSZ007>012-019>026-033>040-048>060-102>105-181700-
NORTHEAST KANSAS

CITY           SKY/WX    TMP DP  RH WIND       PRES   REMARKS
CONCORDIA      CLOUDY    62  59  90 E6        29.91R
EMPORIA        CLOUDY    61  57  87 SE7       29.93F
LAWRENCE       LGT RAIN  61  57  87 W9        29.93R
MANHATTAN      LGT RAIN  63  61  93 CALM      29.92S
MARYSVILLE     CLOUDY    64  59  82 S6        29.90F
OLATHE IND     LGT RAIN  61  59  93 W8        29.94F
OLATHE EXE     LGT RAIN  61  59  93 W8        29.93F
SALINA         CLOUDY    64  59  83 S7        29.91R
TOPEKA BILLARD LGT RAIN  61  59  93 S9        29.94F
TOPEKA FORBES  LGT RAIN  61  58  90 SW7       29.94F FOG
$$



USA.gov is the U.S. government's official web portal to all federal, state and local government web resources and services.